STARLINK-4648, 53602

Orbit data source: Space-Track

STARLINK-4648, 53602 is a payload satellite owned by SpaceX/Seattle (US) in LEO that was launched on Sun, 28 Aug 2022 UTC via an FALCON 9 launch vehicle from the Air Force Eastern Test Range (AFETR). Payload-class satellites include a variety of spacecraft equipped with specific instruments for various scientific and technological missions. These include communications satellites like Starlink; space stations such as the ISS; scientific satellites like the Hubble; Earth observation satellites from companies like Planet Labs, Umbra, and HawkEye 360; GPS; miniature CubeSats for education and research; and military/defense satellites.

Loading next visibility...
Identifier
53602, 2022-104Q
Orbit
LEO
Country
Flag of USUS
Related business
Manufacturer
SpaceX/Seattle
Mission
Operational Commercial Communications
Bus & Motor
STARLINK, Unknown motor
Mass
300 kg wet, ~290 kg dry
Launch date (UTC)
2022-08-28 (3 years ago)
Launch vehicle
FALCON 9
Launch site
Air Force Eastern Test Range (AFETR)
Object type
Payload
Rocket body
Debris
Shape & HBR
Box + 1 Pan, 10.1 m
Radar Cross Section
13.562 m², Large (>1 m²)

Expand to show TLE details & history
Last TLE update: 23 hours ago

TLE from 23 hours ago
0 STARLINK-4648
1 53602U 22104Q   25286.68747986  .00000471  00000-0  47663-4 0  9995
2 53602  53.2153 178.9821 0001609  90.9400 269.1776 15.08843926173499
Epoch: 2025-10-13T16:29Z
TLE epoch observation values (Epoch: 2025-10-13T16:29:58.259Z)
Latitude
-0.00008°
Longitude
-90.99739°
Altitude
540.645 km
Speed
7.593 km/s
True Right ascension
11h 55m 55s
True Declination
0° 00' 00"
Sunlit
Object was in daylight at epoch
Visualization orbit readout
Latitude
Unknown
Longitude
Unknown
Altitude
Unknown
Speed
Unknown
Apparent Right ascension
Unknown
Apparent Declination
Unknown
Sunlit
N/A
Visualization observer readout
Local Sidereal Time
10:00:04
Azimuth
Unknown
Elevation
Unknown
Doppler factor
Unknown
Orbital elements
Apogee altitude
541.09 km
Perigee altitude
538.864 km
Semi-major axis
6,918.114 km
Eccentricity
0.00016
Inclination
53.2153°
RAAN
178.9821°
Arg. of periapsis
90.94°
True anomaly
269.15916°
Mean anomaly
269.1776°
Eccentric anomaly
269.16838°
Mean motion
3.77191 °/min
Orbital period
95.44 mins
BSTAR
0.000047663
Loading maneuver chart data...
Computing Atmospheric mass density...
Loading historical data...
Loading historical data...
Loading historical data...
Loading historical data...
Loading historical data...
Loading historical data...
Loading historical data...

Documentation

Showing up to 5 results
|